sat.trackr.live / text

‹ back to catalog

STARLINK-34534

NORAD 64763 · 2025-147J

PAYLOAD ACTIVE UNKNOWN

§ Identity

Operator
Country
US
Launch date
2025-07-08
Launch site
AFETR
Launch vehicle
Mass (kg)
RCS (m²)

Purposes: comms

External: N2YO · Heavens-Above · Gunter

§ Orbital elements

Epoch: 2026-05-25T00:10:33.229056Z

Period
93.85 min
Inclination
53.1606°
Eccentricity
0.0001295
Mean motion
15.34402771 rev/d
Perigee alt
461.8 km
Apogee alt
463.6 km
Semi-major
6,840.8 km
B*
5.4971e-4
RAAN
247.7456°
Arg perigee
85.1070°
Mean anomaly
275.0081°
Rev number
5,044

§ Raw data

STARLINK-345341 64763U 25147J   26145.00732904  .00018243  00000+0  54971-3 0  99942 64763  53.1606 247.7456 0001295  85.1070 275.0081 15.34402771 50442

JSON: /api/v1/satellites/64763 · /tle

For live sub-satellite position, see the globe view (requires WebGL).

§ Visibility from observer

Set your observer location to see the next 7 days of passes ≥ 10°. The values pass through the URL so the page stays shareable.

No JS? Fill the form by hand. The geolocation button needs JavaScript.